owner,sensor,date,latitude,longitude,vertical_datum,wind_speed,wind_to_direction,wind_speed_of_gust,qcFlag 
NDBC,ioos:station:NOAA.NDBC:SAUF1:1,2011-10-07T19:00:00Z,29.8570,-81.2650,16.5,8.7,40.0,,'1111122,1111122,1111122' 
NDBC,ioos:station:NOAA.NDBC:SAUF1:1,2011-10-07T20:00:00Z,29.8570,-81.2650,16.5,7.2,40.0,,'1111122,1111122,1111122' 
NDBC,ioos:station:NOAA.NDBC:SAUF1:1,2011-10-07T21:00:00Z,29.8570,-81.2650,16.5,7.7,40.0,,'1111122,1111122,1111122' 
NDBC,ioos:station:NOAA.NDBC:SAUF1:1,2011-10-07T22:00:00Z,29.8570,-81.2650,16.5,7.7,50.0,,'1111122,1111122,1111122' 
NDBC,ioos:station:NOAA.NDBC:SAUF1:1,2011-10-07T23:00:00Z,29.8570,-81.2650,16.5,8.7,50.0,,'1111122,1111122,1111122' 
NDBC,ioos:station:NOAA.NDBC:SAUF1:1,2011-10-08T00:00:00Z,29.8570,-81.2650,16.5,11.8,60.0,,'1111122,1111122,1111122' 
NDBC,ioos:station:NOAA.NDBC:SAUF1:1,2011-10-08T01:00:00Z,29.8570,-81.2650,16.5,13.4,70.0,,'1111122,1111122,1111122' 
NDBC,ioos:station:NOAA.NDBC:SAUF1:1,2011-10-08T02:00:00Z,29.8570,-81.2650,16.5,15.4,70.0,,'1111122,1111122,1111122' 
NDBC,ioos:station:NOAA.NDBC:SAUF1:1,2011-10-08T03:00:00Z,29.8570,-81.2650,16.5,15.4,80.0,,'1111122,1111122,1111122' 
NDBC,ioos:station:NOAA.NDBC:SAUF1:1,2011-10-08T04:00:00Z,29.8570,-81.2650,16.5,14.4,70.0,,'1111122,1111122,1111122' 
NDBC,ioos:station:NOAA.NDBC:SAUF1:1,2011-10-08T05:00:00Z,29.8570,-81.2650,16.5,14.9,70.0,,'1111122,1111122,1111122' 
NDBC,ioos:station:NOAA.NDBC:SAUF1:1,2011-10-08T06:00:00Z,29.8570,-81.2650,16.5,15.4,60.0,,'1111122,1111122,1111122' 
NDBC,ioos:station:NOAA.NDBC:SAUF1:1,2011-10-08T07:00:00Z,29.8570,-81.2650,16.5,14.9,70.0,,'1111122,1111122,1111122' 
NDBC,ioos:station:NOAA.NDBC:SAUF1:1,2011-10-08T08:00:00Z,29.8570,-81.2650,16.5,14.4,70.0,,'1111122,1111122,1111122' 
NDBC,ioos:station:NOAA.NDBC:SAUF1:1,2011-10-08T09:00:00Z,29.8570,-81.2650,16.5,13.4,70.0,,'1111122,1111122,1111122' 
NDBC,ioos:station:NOAA.NDBC:SAUF1:1,2011-10-08T10:00:00Z,29.8570,-81.2650,16.5,12.9,70.0,,'1111122,1111122,1111122' 
NDBC,ioos:station:NOAA.NDBC:SAUF1:1,2011-10-08T11:00:00Z,29.8570,-81.2650,16.5,11.8,60.0,,'1111122,1111122,1111122' 
NDBC,ioos:station:NOAA.NDBC:SAUF1:1,2011-10-08T12:00:00Z,29.8570,-81.2650,16.5,12.9,50.0,,'1111122,1111122,1111122' 
NDBC,ioos:station:NOAA.NDBC:SAUF1:1,2011-10-08T13:00:00Z,29.8570,-81.2650,16.5,11.3,60.0,,'1111122,1111122,1111122' 
NDBC,ioos:station:NOAA.NDBC:SAUF1:1,2011-10-08T14:00:00Z,29.8570,-81.2650,16.5,12.9,60.0,,'1111122,1111122,1111122' 
NDBC,ioos:station:NOAA.NDBC:SAUF1:1,2011-10-08T15:00:00Z,29.8570,-81.2650,16.5,12.9,70.0,,'1111122,1111122,1111122' 
NDBC,ioos:station:NOAA.NDBC:SAUF1:1,2011-10-08T16:00:00Z,29.8570,-81.2650,16.5,11.8,60.0,,'1111122,1111122,1111122' 
NDBC,ioos:station:NOAA.NDBC:SAUF1:1,2011-10-08T17:00:00Z,29.8570,-81.2650,16.5,12.9,70.0,,'1111122,1111122,1111122' 
NDBC,ioos:station:NOAA.NDBC:SAUF1:1,2011-10-08T18:00:00Z,29.8570,-81.2650,16.5,12.9,60.0,,'1111122,1111122,1111122' 
NDBC,ioos:station:NOAA.NDBC:SAUF1:1,2011-10-08T19:00:00Z,29.8570,-81.2650,16.5,13.9,80.0,,'1111122,1111122,1111122' 
NDBC,ioos:station:NOAA.NDBC:SAUF1:1,2011-10-08T20:00:00Z,29.8570,-81.2650,16.5,11.8,60.0,,'1111122,1111122,1111122' 
NDBC,ioos:station:NOAA.NDBC:SAUF1:1,2011-10-08T21:00:00Z,29.8570,-81.2650,16.5,15.4,60.0,,'1111122,1111122,1111122' 
NDBC,ioos:station:NOAA.NDBC:SAUF1:1,2011-10-08T22:00:00Z,29.8570,-81.2650,16.5,15.4,70.0,,'1111122,1111122,1111122' 
NDBC,ioos:station:NOAA.NDBC:SAUF1:1,2011-10-08T23:00:00Z,29.8570,-81.2650,16.5,14.9,70.0,,'1111122,1111122,1111122' 
NDBC,ioos:station:NOAA.NDBC:SAUF1:1,2011-10-09T00:00:00Z,29.8570,-81.2650,16.5,19.5,70.0,,'1111122,1111122,1111122' 
NDBC,ioos:station:NOAA.NDBC:SAUF1:1,2011-10-09T01:00:00Z,29.8570,-81.2650,16.5,16.5,60.0,,'1111122,1111122,1111122' 
NDBC,ioos:station:NOAA.NDBC:SAUF1:1,2011-10-09T02:00:00Z,29.8570,-81.2650,16.5,16.5,60.0,,'1111122,1111122,1111122' 
NDBC,ioos:station:NOAA.NDBC:SAUF1:1,2011-10-09T03:00:00Z,29.8570,-81.2650,16.5,16.5,60.0,,'1111122,1111122,1111122' 
NDBC,ioos:station:NOAA.NDBC:SAUF1:1,2011-10-09T04:00:00Z,29.8570,-81.2650,16.5,14.4,60.0,,'1111122,1111122,1111122' 
NDBC,ioos:station:NOAA.NDBC:SAUF1:1,2011-10-09T05:00:00Z,29.8570,-81.2650,16.5,17.0,60.0,,'1111122,1111122,1111122' 
NDBC,ioos:station:NOAA.NDBC:SAUF1:1,2011-10-09T06:00:00Z,29.8570,-81.2650,16.5,13.4,60.0,,'1111122,1111122,1111122' 
NDBC,ioos:station:NOAA.NDBC:SAUF1:1,2011-10-09T07:00:00Z,29.8570,-81.2650,16.5,13.9,60.0,,'1111122,1111122,1111122' 
NDBC,ioos:station:NOAA.NDBC:SAUF1:1,2011-10-09T08:00:00Z,29.8570,-81.2650,16.5,14.4,70.0,,'1111122,1111122,1111122' 
NDBC,ioos:station:NOAA.NDBC:SAUF1:1,2011-10-09T09:00:00Z,29.8570,-81.2650,16.5,13.4,60.0,,'1111122,1111122,1111122' 
NDBC,ioos:station:NOAA.NDBC:SAUF1:1,2011-10-09T10:00:00Z,29.8570,-81.2650,16.5,15.4,50.0,,'1111122,1111122,1111122' 
NDBC,ioos:station:NOAA.NDBC:SAUF1:1,2011-10-09T11:00:00Z,29.8570,-81.2650,16.5,15.9,40.0,,'1111122,1111122,1111122' 
NDBC,ioos:station:NOAA.NDBC:SAUF1:1,2011-10-09T12:00:00Z,29.8570,-81.2650,16.5,15.9,40.0,,'1111122,1111122,1111122' 
NDBC,ioos:station:NOAA.NDBC:SAUF1:1,2011-10-09T13:00:00Z,29.8570,-81.2650,16.5,14.9,50.0,,'1111122,1111122,1111122' 
NDBC,ioos:station:NOAA.NDBC:SAUF1:1,2011-10-09T14:00:00Z,29.8570,-81.2650,16.5,16.5,40.0,,'1111122,1111122,1111122' 
NDBC,ioos:station:NOAA.NDBC:SAUF1:1,2011-10-09T15:00:00Z,29.8570,-81.2650,16.5,15.4,60.0,,'1111122,1111122,1111122' 
NDBC,ioos:station:NOAA.NDBC:SAUF1:1,2011-10-09T16:00:00Z,29.8570,-81.2650,16.5,19.0,50.0,,'1111122,1111122,1111122' 
NDBC,ioos:station:NOAA.NDBC:SAUF1:1,2011-10-09T17:00:00Z,29.8570,-81.2650,16.5,15.4,50.0,,'1111122,1111122,1111122' 
NDBC,ioos:station:NOAA.NDBC:SAUF1:1,2011-10-09T18:00:00Z,29.8570,-81.2650,16.5,13.4,40.0,,'1111122,1111122,1111122' 
NDBC,ioos:station:NOAA.NDBC:SAUF1:1,2011-10-09T20:00:00Z,29.8570,-81.2650,16.5,15.9,50.0,,'1111122,1111122,1111122' 
NDBC,ioos:station:NOAA.NDBC:SAUF1:1,2011-10-09T21:00:00Z,29.8570,-81.2650,16.5,15.4,50.0,,'1111122,1111122,1111122' 
NDBC,ioos:station:NOAA.NDBC:SAUF1:1,2011-10-09T22:00:00Z,29.8570,-81.2650,16.5,15.4,50.0,,'1111122,1111122,1111122' 
NDBC,ioos:station:NOAA.NDBC:SAUF1:1,2011-10-09T23:00:00Z,29.8570,-81.2650,16.5,12.9,40.0,,'1111122,1111122,1111122' 
NDBC,ioos:station:NOAA.NDBC:SAUF1:1,2011-10-10T00:00:00Z,29.8570,-81.2650,16.5,14.4,40.0,,'1111122,1111122,1111122' 
NDBC,ioos:station:NOAA.NDBC:SAUF1:1,2011-10-10T01:00:00Z,29.8570,-81.2650,16.5,13.9,40.0,,'1111122,1111122,1111122' 
NDBC,ioos:station:NOAA.NDBC:SAUF1:1,2011-10-10T02:00:00Z,29.8570,-81.2650,16.5,13.9,40.0,,'1111122,1111122,1111122' 
NDBC,ioos:station:NOAA.NDBC:SAUF1:1,2011-10-10T03:00:00Z,29.8570,-81.2650,16.5,13.9,50.0,,'1111122,1111122,1111122' 
NDBC,ioos:station:NOAA.NDBC:SAUF1:1,2011-10-10T04:00:00Z,29.8570,-81.2650,16.5,14.4,60.0,,'1111122,1111122,1111122' 
NDBC,ioos:station:NOAA.NDBC:SAUF1:1,2011-10-10T05:00:00Z,29.8570,-81.2650,16.5,14.4,50.0,,'1111122,1111122,1111122' 
NDBC,ioos:station:NOAA.NDBC:SAUF1:1,2011-10-10T06:00:00Z,29.8570,-81.2650,16.5,12.3,50.0,,'1111122,1111122,1111122' 
NDBC,ioos:station:NOAA.NDBC:SAUF1:1,2011-10-10T07:00:00Z,29.8570,-81.2650,16.5,11.8,50.0,,'1111122,1111122,1111122' 
NDBC,ioos:station:NOAA.NDBC:SAUF1:1,2011-10-10T08:00:00Z,29.8570,-81.2650,16.5,11.8,30.0,,'1111122,1111122,1111122' 
NDBC,ioos:station:NOAA.NDBC:SAUF1:1,2011-10-10T09:00:00Z,29.8570,-81.2650,16.5,10.8,30.0,,'1111122,1111122,1111122' 
NDBC,ioos:station:NOAA.NDBC:SAUF1:1,2011-10-10T10:00:00Z,29.8570,-81.2650,16.5,10.3,10.0,,'1111122,1111122,1111122' 
NDBC,ioos:station:NOAA.NDBC:SAUF1:1,2011-10-10T11:00:00Z,29.8570,-81.2650,16.5,11.8,10.0,,'1111122,1111122,1111122' 
NDBC,ioos:station:NOAA.NDBC:SAUF1:1,2011-10-10T12:00:00Z,29.8570,-81.2650,16.5,10.8,360.0,,'1111122,1111122,1111122' 
NDBC,ioos:station:NOAA.NDBC:SAUF1:1,2011-10-10T13:00:00Z,29.8570,-81.2650,16.5,10.8,360.0,,'1111122,1111122,1111122' 
NDBC,ioos:station:NOAA.NDBC:SAUF1:1,2011-10-10T14:00:00Z,29.8570,-81.2650,16.5,10.8,360.0,,'1111122,1111122,1111122' 
NDBC,ioos:station:NOAA.NDBC:SAUF1:1,2011-10-10T15:00:00Z,29.8570,-81.2650,16.5,11.3,360.0,,'1111122,1111122,1111122' 
NDBC,ioos:station:NOAA.NDBC:SAUF1:1,2011-10-10T16:00:00Z,29.8570,-81.2650,16.5,10.8,350.0,,'1111122,1111122,1111122' 
NDBC,ioos:station:NOAA.NDBC:SAUF1:1,2011-10-10T17:00:00Z,29.8570,-81.2650,16.5,9.3,350.0,,'1111122,1111122,1111122' 
NDBC,ioos:station:NOAA.NDBC:SAUF1:1,2011-10-10T18:00:00Z,29.8570,-81.2650,16.5,8.2,340.0,,'1111122,1111122,1111122' 
NDBC,ioos:station:NOAA.NDBC:SAUF1:1,2011-10-10T19:00:00Z,29.8570,-81.2650,16.5,7.2,350.0,,'1111122,1111122,1111122' 
NDBC,ioos:station:NOAA.NDBC:SAUF1:1,2011-10-10T20:00:00Z,29.8570,-81.2650,16.5,7.2,330.0,,'1111122,1111122,1111122' 
NDBC,ioos:station:NOAA.NDBC:SAUF1:1,2011-10-10T21:00:00Z,29.8570,-81.2650,16.5,7.7,320.0,,'1111122,1111122,1111122' 
NDBC,ioos:station:NOAA.NDBC:SAUF1:1,2011-10-10T22:00:00Z,29.8570,-81.2650,16.5,6.2,320.0,,'1111122,1111122,1111122' 
NDBC,ioos:station:NOAA.NDBC:SAUF1:1,2011-10-10T23:00:00Z,29.8570,-81.2650,16.5,7.7,310.0,,'1111122,1111122,1111122' 
NDBC,ioos:station:NOAA.NDBC:SAUF1:1,2011-10-11T00:00:00Z,29.8570,-81.2650,16.5,7.2,330.0,,'1111122,1111122,1111122' 
NDBC,ioos:station:NOAA.NDBC:SAUF1:1,2011-10-11T01:00:00Z,29.8570,-81.2650,16.5,6.7,320.0,,'1111122,1111122,1111122' 
NDBC,ioos:station:NOAA.NDBC:SAUF1:1,2011-10-11T02:00:00Z,29.8570,-81.2650,16.5,5.7,330.0,,'1111122,1111122,1111122' 
NDBC,ioos:station:NOAA.NDBC:SAUF1:1,2011-10-11T03:00:00Z,29.8570,-81.2650,16.5,4.1,320.0,,'1111122,1111122,1111122' 
NDBC,ioos:station:NOAA.NDBC:SAUF1:1,2011-10-11T04:00:00Z,29.8570,-81.2650,16.5,2.1,290.0,,'1111122,1111122,1111122' 
NDBC,ioos:station:NOAA.NDBC:SAUF1:1,2011-10-11T05:00:00Z,29.8570,-81.2650,16.5,1.0,240.0,,'1111122,1111122,1111122' 
NDBC,ioos:station:NOAA.NDBC:SAUF1:1,2011-10-11T06:00:00Z,29.8570,-81.2650,16.5,3.6,200.0,,'1111122,1111122,1111122' 
NDBC,ioos:station:NOAA.NDBC:SAUF1:1,2011-10-11T07:00:00Z,29.8570,-81.2650,16.5,3.6,200.0,,'1111122,1111122,1111122' 
NDBC,ioos:station:NOAA.NDBC:SAUF1:1,2011-10-11T08:00:00Z,29.8570,-81.2650,16.5,5.7,220.0,,'1111122,1111122,1111122' 
NDBC,ioos:station:NOAA.NDBC:SAUF1:1,2011-10-11T09:00:00Z,29.8570,-81.2650,16.5,5.1,230.0,,'1111122,1111122,1111122' 
NDBC,ioos:station:NOAA.NDBC:SAUF1:1,2011-10-11T10:00:00Z,29.8570,-81.2650,16.5,5.7,260.0,,'1111122,1111122,1111122' 
NDBC,ioos:station:NOAA.NDBC:SAUF1:1,2011-10-11T11:00:00Z,29.8570,-81.2650,16.5,6.2,250.0,,'1111122,1111122,1111122' 
NDBC,ioos:station:NOAA.NDBC:SAUF1:1,2011-10-11T12:00:00Z,29.8570,-81.2650,16.5,6.7,250.0,,'1111122,1111122,1111122' 
NDBC,ioos:station:NOAA.NDBC:SAUF1:1,2011-10-11T13:00:00Z,29.8570,-81.2650,16.5,7.2,250.0,,'1111122,1111122,1111122' 
NDBC,ioos:station:NOAA.NDBC:SAUF1:1,2011-10-11T14:00:00Z,29.8570,-81.2650,16.5,6.7,260.0,,'1111122,1111122,1111122' 
NDBC,ioos:station:NOAA.NDBC:SAUF1:1,2011-10-11T15:00:00Z,29.8570,-81.2650,16.5,6.2,250.0,,'1111122,1111122,1111122' 
NDBC,ioos:station:NOAA.NDBC:SAUF1:1,2011-10-11T16:00:00Z,29.8570,-81.2650,16.5,5.1,260.0,,'1111122,1111122,1111122' 
NDBC,ioos:station:NOAA.NDBC:SAUF1:1,2011-10-11T17:00:00Z,29.8570,-81.2650,16.5,4.6,250.0,,'1111122,1111122,1111122' 
NDBC,ioos:station:NOAA.NDBC:SAUF1:1,2011-10-11T18:00:00Z,29.8570,-81.2650,16.5,5.7,260.0,,'1111122,1111122,1111122' 
NDBC,ioos:station:NOAA.NDBC:SAUF1:1,2011-10-11T19:00:00Z,29.8570,-81.2650,16.5,6.2,270.0,,'1111122,1111122,1111122' 
NDBC,ioos:station:NOAA.NDBC:SAUF1:1,2011-10-11T20:00:00Z,29.8570,-81.2650,16.5,6.7,280.0,,'1111122,1111122,1111122' 
NDBC,ioos:station:NOAA.NDBC:SAUF1:1,2011-10-11T21:00:00Z,29.8570,-81.2650,16.5,6.2,270.0,,'1111122,1111122,1111122' 
NDBC,ioos:station:NOAA.NDBC:SAUF1:1,2011-10-11T22:00:00Z,29.8570,-81.2650,16.5,7.2,290.0,,'1111122,1111122,1111122' 
NDBC,ioos:station:NOAA.NDBC:SAUF1:1,2011-10-11T23:00:00Z,29.8570,-81.2650,16.5,5.7,270.0,,'1111122,1111122,1111122' 
NDBC,ioos:station:NOAA.NDBC:SAUF1:1,2011-10-12T00:00:00Z,29.8570,-81.2650,16.5,6.2,290.0,,'1111122,1111122,1111122' 
NDBC,ioos:station:NOAA.NDBC:SAUF1:1,2011-10-12T01:00:00Z,29.8570,-81.2650,16.5,4.6,280.0,,'1111122,1111122,1111122' 
NDBC,ioos:station:NOAA.NDBC:SAUF1:1,2011-10-12T02:00:00Z,29.8570,-81.2650,16.5,6.2,290.0,,'1111122,1111122,1111122' 
NDBC,ioos:station:NOAA.NDBC:SAUF1:1,2011-10-12T03:00:00Z,29.8570,-81.2650,16.5,4.6,270.0,,'1111122,1111122,1111122' 
NDBC,ioos:station:NOAA.NDBC:SAUF1:1,2011-10-12T04:00:00Z,29.8570,-81.2650,16.5,5.1,280.0,,'1111122,1111122,1111122' 
NDBC,ioos:station:NOAA.NDBC:SAUF1:1,2011-10-12T05:00:00Z,29.8570,-81.2650,16.5,4.6,340.0,,'1111122,1111122,1111122' 
NDBC,ioos:station:NOAA.NDBC:SAUF1:1,2011-10-12T06:00:00Z,29.8570,-81.2650,16.5,3.6,340.0,,'1111122,1111122,1111122' 
NDBC,ioos:station:NOAA.NDBC:SAUF1:1,2011-10-12T07:00:00Z,29.8570,-81.2650,16.5,3.6,350.0,,'1111122,1111122,1111122' 
NDBC,ioos:station:NOAA.NDBC:SAUF1:1,2011-10-12T08:00:00Z,29.8570,-81.2650,16.5,2.1,330.0,,'1111122,1111122,1111122' 
NDBC,ioos:station:NOAA.NDBC:SAUF1:1,2011-10-12T09:00:00Z,29.8570,-81.2650,16.5,2.6,280.0,,'1111122,1111122,1111122' 
NDBC,ioos:station:NOAA.NDBC:SAUF1:1,2011-10-12T10:00:00Z,29.8570,-81.2650,16.5,4.6,320.0,,'1111122,1111122,1111122' 
NDBC,ioos:station:NOAA.NDBC:SAUF1:1,2011-10-12T11:00:00Z,29.8570,-81.2650,16.5,5.7,330.0,,'1111122,1111122,1111122' 
NDBC,ioos:station:NOAA.NDBC:SAUF1:1,2011-10-12T12:00:00Z,29.8570,-81.2650,16.5,4.1,20.0,,'1111122,1111122,1111122' 
NDBC,ioos:station:NOAA.NDBC:SAUF1:1,2011-10-12T13:00:00Z,29.8570,-81.2650,16.5,4.6,350.0,,'1111122,1111122,1111122' 
NDBC,ioos:station:NOAA.NDBC:SAUF1:1,2011-10-12T14:00:00Z,29.8570,-81.2650,16.5,3.1,360.0,,'1111122,1111122,1111122' 
NDBC,ioos:station:NOAA.NDBC:SAUF1:1,2011-10-12T15:00:00Z,29.8570,-81.2650,16.5,2.1,10.0,,'1111122,1111122,1111122' 
NDBC,ioos:station:NOAA.NDBC:SAUF1:1,2011-10-12T16:00:00Z,29.8570,-81.2650,16.5,4.6,360.0,,'1111122,1111122,1111122' 
NDBC,ioos:station:NOAA.NDBC:SAUF1:1,2011-10-12T17:00:00Z,29.8570,-81.2650,16.5,2.6,350.0,,'1111122,1111122,1111122' 
NDBC,ioos:station:NOAA.NDBC:SAUF1:1,2011-10-12T18:00:00Z,29.8570,-81.2650,16.5,1.5,340.0,,'1111122,1111122,1111122' 
NDBC,ioos:station:NOAA.NDBC:SAUF1:1,2011-10-12T19:00:00Z,29.8570,-81.2650,16.5,2.1,260.0,,'1111122,1111122,1111122' 
NDBC,ioos:station:NOAA.NDBC:SAUF1:1,2011-10-12T20:00:00Z,29.8570,-81.2650,16.5,2.6,270.0,,'1111122,1111122,1111122' 
NDBC,ioos:station:NOAA.NDBC:SAUF1:1,2011-10-12T21:00:00Z,29.8570,-81.2650,16.5,5.1,290.0,,'1111122,1111122,1111122' 
NDBC,ioos:station:NOAA.NDBC:SAUF1:1,2011-10-12T22:00:00Z,29.8570,-81.2650,16.5,2.6,280.0,,'1111122,1111122,1111122' 
NDBC,ioos:station:NOAA.NDBC:SAUF1:1,2011-10-12T23:00:00Z,29.8570,-81.2650,16.5,2.1,300.0,,'1111122,1111122,1111122' 
NDBC,ioos:station:NOAA.NDBC:SAUF1:1,2011-10-13T00:00:00Z,29.8570,-81.2650,16.5,1.5,300.0,,'1111122,1111122,1111122' 
NDBC,ioos:station:NOAA.NDBC:SAUF1:1,2011-10-13T01:00:00Z,29.8570,-81.2650,16.5,3.6,300.0,,'1111122,1111122,1111122' 
NDBC,ioos:station:NOAA.NDBC:SAUF1:1,2011-10-13T02:00:00Z,29.8570,-81.2650,16.5,4.1,320.0,,'1111122,1111122,1111122' 
NDBC,ioos:station:NOAA.NDBC:SAUF1:1,2011-10-13T03:00:00Z,29.8570,-81.2650,16.5,3.6,290.0,,'1111122,1111122,1111122' 
NDBC,ioos:station:NOAA.NDBC:SAUF1:1,2011-10-13T04:00:00Z,29.8570,-81.2650,16.5,4.1,320.0,,'1111122,1111122,1111122' 
NDBC,ioos:station:NOAA.NDBC:SAUF1:1,2011-10-13T05:00:00Z,29.8570,-81.2650,16.5,1.5,310.0,,'1111122,1111122,1111122' 
NDBC,ioos:station:NOAA.NDBC:SAUF1:1,2011-10-13T06:00:00Z,29.8570,-81.2650,16.5,1.0,360.0,,'1111122,1111122,1111122' 
NDBC,ioos:station:NOAA.NDBC:SAUF1:1,2011-10-13T09:00:00Z,29.8570,-81.2650,16.5,1.0,330.0,,'1111122,1111122,1111122' 
NDBC,ioos:station:NOAA.NDBC:SAUF1:1,2011-10-13T10:00:00Z,29.8570,-81.2650,16.5,4.1,320.0,,'1111122,1111122,1111122' 
NDBC,ioos:station:NOAA.NDBC:SAUF1:1,2011-10-13T11:00:00Z,29.8570,-81.2650,16.5,2.6,340.0,,'1111122,1111122,1111122' 
NDBC,ioos:station:NOAA.NDBC:SAUF1:1,2011-10-13T12:00:00Z,29.8570,-81.2650,16.5,2.1,320.0,,'1111122,1111122,1111122' 
NDBC,ioos:station:NOAA.NDBC:SAUF1:1,2011-10-13T14:00:00Z,29.8570,-81.2650,16.5,1.5,260.0,,'1111122,1111122,1111122' 
NDBC,ioos:station:NOAA.NDBC:SAUF1:1,2011-10-13T15:00:00Z,29.8570,-81.2650,16.5,2.1,260.0,,'1111122,1111122,1111122' 
NDBC,ioos:station:NOAA.NDBC:SAUF1:1,2011-10-13T17:00:00Z,29.8570,-81.2650,16.5,5.7,280.0,,'1111122,1111122,1111122' 
NDBC,ioos:station:NOAA.NDBC:SAUF1:1,2011-10-13T18:00:00Z,29.8570,-81.2650,16.5,4.6,250.0,,'1111122,1111122,1111122' 
NDBC,ioos:station:NOAA.NDBC:SAUF1:1,2011-10-13T19:00:00Z,29.8570,-81.2650,16.5,6.2,270.0,,'1111122,1111122,1111122' 
NDBC,ioos:station:NOAA.NDBC:SAUF1:1,2011-10-13T20:00:00Z,29.8570,-81.2650,16.5,6.2,270.0,,'1111122,1111122,1111122' 
NDBC,ioos:station:NOAA.NDBC:SAUF1:1,2011-10-13T21:00:00Z,29.8570,-81.2650,16.5,7.7,250.0,,'1111122,1111122,1111122' 
NDBC,ioos:station:NOAA.NDBC:SAUF1:1,2011-10-13T22:00:00Z,29.8570,-81.2650,16.5,9.3,250.0,,'1111122,1111122,1111122' 
NDBC,ioos:station:NOAA.NDBC:SAUF1:1,2011-10-13T23:00:00Z,29.8570,-81.2650,16.5,8.2,260.0,,'1111122,1111122,1111122' 
NDBC,ioos:station:NOAA.NDBC:SAUF1:1,2011-10-14T00:00:00Z,29.8570,-81.2650,16.5,9.8,250.0,,'1111122,1111122,1111122' 
NDBC,ioos:station:NOAA.NDBC:SAUF1:1,2011-10-14T01:00:00Z,29.8570,-81.2650,16.5,8.7,260.0,,'1111122,1111122,1111122' 
NDBC,ioos:station:NOAA.NDBC:SAUF1:1,2011-10-14T02:00:00Z,29.8570,-81.2650,16.5,9.3,270.0,,'1111122,1111122,1111122' 
NDBC,ioos:station:NOAA.NDBC:SAUF1:1,2011-10-14T03:00:00Z,29.8570,-81.2650,16.5,8.7,270.0,,'1111122,1111122,1111122' 
NDBC,ioos:station:NOAA.NDBC:SAUF1:1,2011-10-14T04:00:00Z,29.8570,-81.2650,16.5,9.8,290.0,,'1111122,1111122,1111122' 
NDBC,ioos:station:NOAA.NDBC:SAUF1:1,2011-10-14T05:00:00Z,29.8570,-81.2650,16.5,8.2,300.0,,'1111122,1111122,1111122' 
NDBC,ioos:station:NOAA.NDBC:SAUF1:1,2011-10-14T06:00:00Z,29.8570,-81.2650,16.5,7.7,340.0,,'1111122,1111122,1111122' 
NDBC,ioos:station:NOAA.NDBC:SAUF1:1,2011-10-14T07:00:00Z,29.8570,-81.2650,16.5,8.2,360.0,,'1111122,1111122,1111122' 
NDBC,ioos:station:NOAA.NDBC:SAUF1:1,2011-10-14T08:00:00Z,29.8570,-81.2650,16.5,9.3,360.0,,'1111122,1111122,1111122' 
NDBC,ioos:station:NOAA.NDBC:SAUF1:1,2011-10-14T09:00:00Z,29.8570,-81.2650,16.5,9.3,350.0,,'1111122,1111122,1111122' 
NDBC,ioos:station:NOAA.NDBC:SAUF1:1,2011-10-14T10:00:00Z,29.8570,-81.2650,16.5,8.2,360.0,,'1111122,1111122,1111122' 
NDBC,ioos:station:NOAA.NDBC:SAUF1:1,2011-10-14T11:00:00Z,29.8570,-81.2650,16.5,9.3,360.0,,'1111122,1111122,1111122' 
NDBC,ioos:station:NOAA.NDBC:SAUF1:1,2011-10-14T12:00:00Z,29.8570,-81.2650,16.5,7.7,360.0,,'1111122,1111122,1111122' 
NDBC,ioos:station:NOAA.NDBC:SAUF1:1,2011-10-14T13:00:00Z,29.8570,-81.2650,16.5,7.7,360.0,,'1111122,1111122,1111122' 
NDBC,ioos:station:NOAA.NDBC:SAUF1:1,2011-10-14T14:00:00Z,29.8570,-81.2650,16.5,7.2,10.0,,'1111122,1111122,1111122' 
NDBC,ioos:station:NOAA.NDBC:SAUF1:1,2011-10-14T15:00:00Z,29.8570,-81.2650,16.5,6.7,360.0,,'1111122,1111122,1111122' 
NDBC,ioos:station:NOAA.NDBC:SAUF1:1,2011-10-14T16:00:00Z,29.8570,-81.2650,16.5,5.1,10.0,,'1111122,1111122,1111122' 
NDBC,ioos:station:NOAA.NDBC:SAUF1:1,2011-10-14T17:00:00Z,29.8570,-81.2650,16.5,4.1,20.0,,'1111122,1111122,1111122' 
NDBC,ioos:station:NOAA.NDBC:SAUF1:1,2011-10-14T18:00:00Z,29.8570,-81.2650,16.5,1.5,70.0,,'1111122,1111122,1111122' 
NDBC,ioos:station:NOAA.NDBC:SAUF1:1,2011-10-14T20:00:00Z,29.8570,-81.2650,16.5,1.5,190.0,,'1111122,1111122,1111122' 
NDBC,ioos:station:NOAA.NDBC:SAUF1:1,2011-10-14T21:00:00Z,29.8570,-81.2650,16.5,2.1,180.0,,'1111122,1111122,1111122' 
NDBC,ioos:station:NOAA.NDBC:SAUF1:1,2011-10-14T22:00:00Z,29.8570,-81.2650,16.5,1.0,210.0,,'1111122,1111122,1111122' 
NDBC,ioos:station:NOAA.NDBC:SAUF1:1,2011-10-14T23:00:00Z,29.8570,-81.2650,16.5,1.5,220.0,,'1111122,1111122,1111122' 
NDBC,ioos:station:NOAA.NDBC:SAUF1:1,2011-10-15T00:00:00Z,29.8570,-81.2650,16.5,2.1,250.0,,'1111122,1111122,1111122' 
NDBC,ioos:station:NOAA.NDBC:SAUF1:1,2011-10-15T01:00:00Z,29.8570,-81.2650,16.5,2.6,260.0,,'1111122,1111122,1111122' 
NDBC,ioos:station:NOAA.NDBC:SAUF1:1,2011-10-15T02:00:00Z,29.8570,-81.2650,16.5,2.1,270.0,,'1111122,1111122,1111122' 
NDBC,ioos:station:NOAA.NDBC:SAUF1:1,2011-10-15T03:00:00Z,29.8570,-81.2650,16.5,2.6,310.0,,'1111122,1111122,1111122' 
NDBC,ioos:station:NOAA.NDBC:SAUF1:1,2011-10-15T04:00:00Z,29.8570,-81.2650,16.5,3.1,310.0,,'1111122,1111122,1111122' 
NDBC,ioos:station:NOAA.NDBC:SAUF1:1,2011-10-15T05:00:00Z,29.8570,-81.2650,16.5,3.1,310.0,,'1111122,1111122,1111122' 
NDBC,ioos:station:NOAA.NDBC:SAUF1:1,2011-10-15T06:00:00Z,29.8570,-81.2650,16.5,3.6,320.0,,'1111122,1111122,1111122' 
NDBC,ioos:station:NOAA.NDBC:SAUF1:1,2011-10-15T07:00:00Z,29.8570,-81.2650,16.5,3.1,330.0,,'1111122,1111122,1111122' 
NDBC,ioos:station:NOAA.NDBC:SAUF1:1,2011-10-15T11:00:00Z,29.8570,-81.2650,16.5,7.2,10.0,,'1111122,1111122,1111122' 
NDBC,ioos:station:NOAA.NDBC:SAUF1:1,2011-10-15T22:00:00Z,29.8570,-81.2650,16.5,5.1,100.0,,'1111122,1111122,1111122' 
NDBC,ioos:station:NOAA.NDBC:SAUF1:1,2011-10-15T23:00:00Z,29.8570,-81.2650,16.5,5.1,130.0,,'1111122,1111122,1111122' 
NDBC,ioos:station:NOAA.NDBC:SAUF1:1,2011-10-16T00:00:00Z,29.8570,-81.2650,16.5,6.2,150.0,,'1111122,1111122,1111122' 
NDBC,ioos:station:NOAA.NDBC:SAUF1:1,2011-10-16T01:00:00Z,29.8570,-81.2650,16.5,7.2,140.0,,'1111122,1111122,1111122' 
NDBC,ioos:station:NOAA.NDBC:SAUF1:1,2011-10-16T02:00:00Z,29.8570,-81.2650,16.5,6.2,140.0,,'1111122,1111122,1111122' 
NDBC,ioos:station:NOAA.NDBC:SAUF1:1,2011-10-16T03:00:00Z,29.8570,-81.2650,16.5,5.1,130.0,,'1111122,1111122,1111122' 
NDBC,ioos:station:NOAA.NDBC:SAUF1:1,2011-10-16T04:00:00Z,29.8570,-81.2650,16.5,5.7,130.0,,'1111122,1111122,1111122' 
NDBC,ioos:station:NOAA.NDBC:SAUF1:1,2011-10-16T05:00:00Z,29.8570,-81.2650,16.5,5.7,140.0,,'1111122,1111122,1111122' 
NDBC,ioos:station:NOAA.NDBC:SAUF1:1,2011-10-16T06:00:00Z,29.8570,-81.2650,16.5,4.1,120.0,,'1111122,1111122,1111122' 
NDBC,ioos:station:NOAA.NDBC:SAUF1:1,2011-10-16T07:00:00Z,29.8570,-81.2650,16.5,2.6,120.0,,'1111122,1111122,1111122' 
NDBC,ioos:station:NOAA.NDBC:SAUF1:1,2011-10-16T08:00:00Z,29.8570,-81.2650,16.5,3.1,90.0,,'1111122,1111122,1111122' 
NDBC,ioos:station:NOAA.NDBC:SAUF1:1,2011-10-16T09:00:00Z,29.8570,-81.2650,16.5,3.6,80.0,,'1111122,1111122,1111122' 
NDBC,ioos:station:NOAA.NDBC:SAUF1:1,2011-10-16T10:00:00Z,29.8570,-81.2650,16.5,4.1,60.0,,'1111122,1111122,1111122' 
NDBC,ioos:station:NOAA.NDBC:SAUF1:1,2011-10-16T11:00:00Z,29.8570,-81.2650,16.5,6.7,30.0,,'1111122,1111122,1111122' 
NDBC,ioos:station:NOAA.NDBC:SAUF1:1,2011-10-16T12:00:00Z,29.8570,-81.2650,16.5,6.2,40.0,,'1111122,1111122,1111122' 
NDBC,ioos:station:NOAA.NDBC:SAUF1:1,2011-10-16T13:00:00Z,29.8570,-81.2650,16.5,7.2,40.0,,'1111122,1111122,1111122' 
NDBC,ioos:station:NOAA.NDBC:SAUF1:1,2011-10-16T14:00:00Z,29.8570,-81.2650,16.5,7.2,40.0,,'1111122,1111122,1111122' 
NDBC,ioos:station:NOAA.NDBC:SAUF1:1,2011-10-16T15:00:00Z,29.8570,-81.2650,16.5,7.7,50.0,,'1111122,1111122,1111122' 
NDBC,ioos:station:NOAA.NDBC:SAUF1:1,2011-10-16T16:00:00Z,29.8570,-81.2650,16.5,6.7,50.0,,'1111122,1111122,1111122' 
NDBC,ioos:station:NOAA.NDBC:SAUF1:1,2011-10-16T17:00:00Z,29.8570,-81.2650,16.5,6.7,50.0,,'1111122,1111122,1111122' 
NDBC,ioos:station:NOAA.NDBC:SAUF1:1,2011-10-16T18:00:00Z,29.8570,-81.2650,16.5,7.7,50.0,,'1111122,1111122,1111122' 
NDBC,ioos:station:NOAA.NDBC:SAUF1:1,2011-10-16T19:00:00Z,29.8570,-81.2650,16.5,6.7,70.0,,'1111122,1111122,1111122' 
NDBC,ioos:station:NOAA.NDBC:SAUF1:1,2011-10-16T20:00:00Z,29.8570,-81.2650,16.5,6.2,70.0,,'1111122,1111122,1111122' 
NDBC,ioos:station:NOAA.NDBC:SAUF1:1,2011-10-16T21:00:00Z,29.8570,-81.2650,16.5,5.1,90.0,,'1111122,1111122,1111122' 
NDBC,ioos:station:NOAA.NDBC:SAUF1:1,2011-10-16T22:00:00Z,29.8570,-81.2650,16.5,4.6,80.0,,'1111122,1111122,1111122' 
NDBC,ioos:station:NOAA.NDBC:SAUF1:1,2011-10-16T23:00:00Z,29.8570,-81.2650,16.5,4.1,70.0,,'1111122,1111122,1111122' 
NDBC,ioos:station:NOAA.NDBC:SAUF1:1,2011-10-17T00:00:00Z,29.8570,-81.2650,16.5,3.6,60.0,,'1111122,1111122,1111122' 
NDBC,ioos:station:NOAA.NDBC:SAUF1:1,2011-10-17T01:00:00Z,29.8570,-81.2650,16.5,3.1,90.0,,'1111122,1111122,1111122' 